owner,sensor,date,latitude,longitude,vertical_datum,direction_of_sea_water_velocity,sea_water_speed,upward_sea_water_velocity,qcFlag 
TABS,ioos:station:wmo:42048:1,2016-05-04T23:00:00Z,27.9396,-96.8429,2.0,229.2661008,49.33011758,-99999.0,'11111222,11111222,99999999' 
TABS,ioos:station:wmo:42048:1,2016-05-04T23:30:00Z,27.9396,-96.8429,2.0,234.5886105,48.39168524,-99999.0,'11111222,11111222,99999999' 
TABS,ioos:station:wmo:42048:1,2016-05-05T00:00:00Z,27.9396,-96.8429,2.0,228.8902746,40.85178087,-99999.0,'11111222,11111222,99999999' 
TABS,ioos:station:wmo:42048:1,2016-05-05T00:30:00Z,27.9396,-96.8429,2.0,227.7039465,36.71851985,-99999.0,'11111222,11111222,99999999' 
TABS,ioos:station:wmo:42048:1,2016-05-05T01:00:00Z,27.9396,-96.8429,2.0,226.4888765,35.64314941,-99999.0,'11111222,11111222,99999999' 
TABS,ioos:station:wmo:42048:1,2016-05-05T01:30:00Z,27.9396,-96.8429,2.0,223.7851176,32.02499024,-99999.0,'11111222,11111222,99999999' 
TABS,ioos:station:wmo:42048:1,2016-05-05T02:00:00Z,27.9396,-96.8429,2.0,228.0246369,31.48891392,-99999.0,'11111222,11111222,99999999' 
TABS,ioos:station:wmo:42048:1,2016-05-05T02:30:00Z,27.9396,-96.8429,2.0,225.6071489,25.34413147,-99999.0,'11111222,11111222,99999999' 
TABS,ioos:station:wmo:42048:1,2016-05-05T03:00:00Z,27.9396,-96.8429,2.0,230.8370031,25.44637106,-99999.0,'11111222,11111222,99999999' 
TABS,ioos:station:wmo:42048:1,2016-05-05T03:30:00Z,27.9396,-96.8429,2.0,233.7087065,21.57510139,-99999.0,'11111222,11111222,99999999' 
TABS,ioos:station:wmo:42048:1,2016-05-05T04:00:00Z,27.9396,-96.8429,2.0,233.0682917,14.91200858,-99999.0,'11111222,11111222,99999999' 
TABS,ioos:station:wmo:42048:1,2016-05-05T04:30:00Z,27.9396,-96.8429,2.0,228.5784091,10.53522188,-99999.0,'11111222,11111222,99999999' 
TABS,ioos:station:wmo:42048:1,2016-05-05T05:00:00Z,27.9396,-96.8429,2.0,224.1182824,8.73380215,-99999.0,'11133222,11111222,99999999' 
TABS,ioos:station:wmo:42048:1,2016-05-05T05:30:00Z,27.9396,-96.8429,2.0,213.2314229,6.240576896,-99999.0,'11133222,11111222,99999999' 
TABS,ioos:station:wmo:42048:1,2016-05-05T06:00:00Z,27.9396,-96.8429,2.0,207.4394533,3.515508498,-99999.0,'11133222,11111222,99999999' 
TABS,ioos:station:wmo:42048:1,2016-05-05T06:30:00Z,27.9396,-96.8429,2.0,151.163395,5.867580421,-99999.0,'11133222,11111222,99999999' 
TABS,ioos:station:wmo:42048:1,2016-05-05T07:00:00Z,27.9396,-96.8429,2.0,141.0595403,6.698372937,-99999.0,'11133222,11111222,99999999' 
TABS,ioos:station:wmo:42048:1,2016-05-05T07:30:00Z,27.9396,-96.8429,2.0,122.1102934,11.56989628,-99999.0,'11111222,11111222,99999999' 
TABS,ioos:station:wmo:42048:1,2016-05-05T08:00:00Z,27.9396,-96.8429,2.0,111.3509303,15.35376501,-99999.0,'11111222,11111222,99999999' 
TABS,ioos:station:wmo:42048:1,2016-05-05T08:30:00Z,27.9396,-96.8429,2.0,111.1919928,16.23811873,-99999.0,'11111222,11111222,99999999' 
TABS,ioos:station:wmo:42048:1,2016-05-05T09:00:00Z,27.9396,-96.8429,2.0,109.0663846,16.92870048,-99999.0,'11111222,11111222,99999999' 
TABS,ioos:station:wmo:42048:1,2016-05-05T09:30:00Z,27.9396,-96.8429,2.0,110.6116589,20.48104001,-99999.0,'11111222,11111222,99999999' 
TABS,ioos:station:wmo:42048:1,2016-05-05T10:00:00Z,27.9396,-96.8429,2.0,105.0401358,21.04076995,-99999.0,'11111222,11111222,99999999' 
TABS,ioos:station:wmo:42048:1,2016-05-05T10:30:00Z,27.9396,-96.8429,2.0,108.9647728,21.20081602,-99999.0,'11111222,11111222,99999999' 
TABS,ioos:station:wmo:42048:1,2016-05-05T11:00:00Z,27.9396,-96.8429,2.0,109.0626522,23.66790654,-99999.0,'11111222,11111222,99999999' 
TABS,ioos:station:wmo:42048:1,2016-05-05T11:30:00Z,27.9396,-96.8429,2.0,108.8151638,23.34761016,-99999.0,'11111222,11111222,99999999' 
TABS,ioos:station:wmo:42048:1,2016-05-05T12:00:00Z,27.9396,-96.8429,2.0,103.4930352,25.07203422,-99999.0,'11111222,11111222,99999999' 
TABS,ioos:station:wmo:42048:1,2016-05-05T12:30:00Z,27.9396,-96.8429,2.0,102.8661817,25.41818247,-99999.0,'11111222,11111222,99999999' 
TABS,ioos:station:wmo:42048:1,2016-05-05T13:00:00Z,27.9396,-96.8429,2.0,106.3238936,26.61281646,-99999.0,'11111222,11111222,99999999' 
TABS,ioos:station:wmo:42048:1,2016-05-05T13:30:00Z,27.9396,-96.8429,2.0,103.6282665,25.88890882,-99999.0,'11111222,11111222,99999999' 
TABS,ioos:station:wmo:42048:1,2016-05-05T14:00:00Z,27.9396,-96.8429,2.0,104.3547615,28.35527817,-99999.0,'11111222,11111222,99999999' 
TABS,ioos:station:wmo:42048:1,2016-05-05T14:30:00Z,27.9396,-96.8429,2.0,105.6503351,29.87769235,-99999.0,'11111222,11111222,99999999' 
TABS,ioos:station:wmo:42048:1,2016-05-05T15:00:00Z,27.9396,-96.8429,2.0,104.2490991,29.37369231,-99999.0,'11111222,11111222,99999999' 
TABS,ioos:station:wmo:42048:1,2016-05-05T15:30:00Z,27.9396,-96.8429,2.0,101.4374341,31.71990227,-99999.0,'11111222,11111222,99999999' 
TABS,ioos:station:wmo:42048:1,2016-05-05T16:00:00Z,27.9396,-96.8429,2.0,98.21199838,30.66442401,-99999.0,'11111222,11111222,99999999' 
TABS,ioos:station:wmo:42048:1,2016-05-05T16:30:00Z,27.9396,-96.8429,2.0,100.8337759,27.61214407,-99999.0,'11111222,11111222,99999999' 
TABS,ioos:station:wmo:42048:1,2016-05-05T17:00:00Z,27.9396,-96.8429,2.0,103.9297298,31.32110471,-99999.0,'11111222,11111222,99999999' 
TABS,ioos:station:wmo:42048:1,2016-05-05T17:30:00Z,27.9396,-96.8429,2.0,105.3816026,28.20011525,-99999.0,'11111222,11111222,99999999' 
TABS,ioos:station:wmo:42048:1,2016-05-05T18:00:00Z,27.9396,-96.8429,2.0,103.0591703,26.59789841,-99999.0,'11111222,11111222,99999999' 
TABS,ioos:station:wmo:42048:1,2016-05-05T18:30:00Z,27.9396,-96.8429,2.0,102.6402484,25.08805493,-99999.0,'11111222,11111222,99999999' 
TABS,ioos:station:wmo:42048:1,2016-05-05T19:00:00Z,27.9396,-96.8429,2.0,104.8448587,23.88728741,-99999.0,'11111222,11111222,99999999' 
TABS,ioos:station:wmo:42048:1,2016-05-05T19:30:00Z,27.9396,-96.8429,2.0,106.8331146,21.72068599,-99999.0,'11111222,11111222,99999999' 
TABS,ioos:station:wmo:42048:1,2016-05-05T20:00:00Z,27.9396,-96.8429,2.0,101.2869969,19.61945973,-99999.0,'11111222,11111222,99999999' 
TABS,ioos:station:wmo:42048:1,2016-05-05T20:30:00Z,27.9396,-96.8429,2.0,98.71015962,18.15943281,-99999.0,'11111222,11111222,99999999' 
TABS,ioos:station:wmo:42048:1,2016-05-05T21:00:00Z,27.9396,-96.8429,2.0,100.3843486,16.75442628,-99999.0,'11111222,11111222,99999999' 
TABS,ioos:station:wmo:42048:1,2016-05-05T21:30:00Z,27.9396,-96.8429,2.0,99.49074594,16.55662405,-99999.0,'11111222,11111222,99999999' 
TABS,ioos:station:wmo:42048:1,2016-05-05T22:00:00Z,27.9396,-96.8429,2.0,95.372268,15.16662125,-99999.0,'11111222,11111222,99999999' 
TABS,ioos:station:wmo:42048:1,2016-05-05T22:30:00Z,27.9396,-96.8429,2.0,95.5097367,14.47688502,-99999.0,'11111222,11111222,99999999' 
TABS,ioos:station:wmo:42048:1,2016-05-05T23:00:00Z,27.9396,-96.8429,2.0,86.93483807,15.52220667,-99999.0,'11111222,11111222,99999999' 
TABS,ioos:station:wmo:42048:1,2016-05-05T23:30:00Z,27.9396,-96.8429,2.0,77.06052144,15.58576915,-99999.0,'11111222,11111222,99999999' 
TABS,ioos:station:wmo:42048:1,2016-05-06T00:00:00Z,27.9396,-96.8429,2.0,63.60336201,18.26428208,-99999.0,'11111222,11111222,99999999' 
TABS,ioos:station:wmo:42048:1,2016-05-06T00:30:00Z,27.9396,-96.8429,2.0,61.28976015,19.23472121,-99999.0,'11111222,11111222,99999999' 
TABS,ioos:station:wmo:42048:1,2016-05-06T01:00:00Z,27.9396,-96.8429,2.0,53.75346839,21.3272619,-99999.0,'11111222,11111222,99999999' 
TABS,ioos:station:wmo:42048:1,2016-05-06T01:30:00Z,27.9396,-96.8429,2.0,53.55177865,22.01659601,-99999.0,'11111222,11111222,99999999' 
TABS,ioos:station:wmo:42048:1,2016-05-06T02:00:00Z,27.9396,-96.8429,2.0,47.42013255,21.77002067,-99999.0,'11111222,11111222,99999999' 
TABS,ioos:station:wmo:42048:1,2016-05-06T02:30:00Z,27.9396,-96.8429,2.0,51.73371281,23.88109294,-99999.0,'11111222,11111222,99999999' 
TABS,ioos:station:wmo:42048:1,2016-05-06T03:00:00Z,27.9396,-96.8429,2.0,43.38558191,23.08913164,-99999.0,'11111222,11111222,99999999' 
TABS,ioos:station:wmo:42048:1,2016-05-06T03:30:00Z,27.9396,-96.8429,2.0,39.20637728,24.72655455,-99999.0,'11111222,11111222,99999999' 
TABS,ioos:station:wmo:42048:1,2016-05-06T04:00:00Z,27.9396,-96.8429,2.0,33.53307549,23.2614402,-99999.0,'11111222,11111222,99999999' 
TABS,ioos:station:wmo:42048:1,2016-05-06T04:30:00Z,27.9396,-96.8429,2.0,31.67820569,23.93620271,-99999.0,'11111222,11111222,99999999' 
TABS,ioos:station:wmo:42048:1,2016-05-06T05:00:00Z,27.9396,-96.8429,2.0,29.2621664,25.75672728,-99999.0,'11111222,11111222,99999999' 
TABS,ioos:station:wmo:42048:1,2016-05-06T05:30:00Z,27.9396,-96.8429,2.0,34.50970951,27.92369066,-99999.0,'11111222,11111222,99999999' 
TABS,ioos:station:wmo:42048:1,2016-05-06T06:00:00Z,27.9396,-96.8429,2.0,33.73756401,30.1951155,-99999.0,'11111222,11111222,99999999' 
TABS,ioos:station:wmo:42048:1,2016-05-06T06:30:00Z,27.9396,-96.8429,2.0,30.98130015,28.22695343,-99999.0,'11111222,11111222,99999999' 
TABS,ioos:station:wmo:42048:1,2016-05-06T07:00:00Z,27.9396,-96.8429,2.0,32.29062441,27.47972525,-99999.0,'11111222,11111222,99999999' 
TABS,ioos:station:wmo:42048:1,2016-05-06T07:30:00Z,27.9396,-96.8429,2.0,33.14074184,30.65691602,-99999.0,'11111222,11111222,99999999' 
TABS,ioos:station:wmo:42048:1,2016-05-06T08:00:00Z,27.9396,-96.8429,2.0,37.97208577,30.57165517,-99999.0,'11111222,11111222,99999999' 
TABS,ioos:station:wmo:42048:1,2016-05-06T08:30:00Z,27.9396,-96.8429,2.0,31.25633456,25.53647196,-99999.0,'11111222,11111222,99999999' 
TABS,ioos:station:wmo:42048:1,2016-05-06T09:00:00Z,27.9396,-96.8429,2.0,37.80472289,24.27523017,-99999.0,'11111222,11111222,99999999' 
TABS,ioos:station:wmo:42048:1,2016-05-06T09:30:00Z,27.9396,-96.8429,2.0,28.36628962,24.33149605,-99999.0,'11111222,11111222,99999999' 
TABS,ioos:station:wmo:42048:1,2016-05-06T10:00:00Z,27.9396,-96.8429,2.0,28.409782,24.59160223,-99999.0,'11111222,11111222,99999999' 
TABS,ioos:station:wmo:42048:1,2016-05-06T10:30:00Z,27.9396,-96.8429,2.0,23.85143969,27.20320569,-99999.0,'11111222,11111222,99999999' 
TABS,ioos:station:wmo:42048:1,2016-05-06T11:00:00Z,27.9396,-96.8429,2.0,22.02494267,27.62610541,-99999.0,'11111222,11111222,99999999' 
TABS,ioos:station:wmo:42048:1,2016-05-06T11:30:00Z,27.9396,-96.8429,2.0,26.24370037,26.30104561,-99999.0,'11111222,11111222,99999999' 
TABS,ioos:station:wmo:42048:1,2016-05-06T12:00:00Z,27.9396,-96.8429,2.0,27.45091114,28.35225741,-99999.0,'11111222,11111222,99999999' 
TABS,ioos:station:wmo:42048:1,2016-05-06T12:30:00Z,27.9396,-96.8429,2.0,30.19176282,26.72533629,-99999.0,'11111222,11111222,99999999' 
TABS,ioos:station:wmo:42048:1,2016-05-06T13:00:00Z,27.9396,-96.8429,2.0,31.06204404,29.03303808,-99999.0,'11111222,11111222,99999999' 
TABS,ioos:station:wmo:42048:1,2016-05-06T13:30:00Z,27.9396,-96.8429,2.0,34.41658928,27.565268,-99999.0,'11111222,11111222,99999999' 
TABS,ioos:station:wmo:42048:1,2016-05-06T14:00:00Z,27.9396,-96.8429,2.0,26.83674083,28.30893852,-99999.0,'11111222,11111222,99999999' 
TABS,ioos:station:wmo:42048:1,2016-05-06T14:30:00Z,27.9396,-96.8429,2.0,30.52811818,29.31338602,-99999.0,'11111222,11111222,99999999' 
TABS,ioos:station:wmo:42048:1,2016-05-06T15:00:00Z,27.9396,-96.8429,2.0,31.94884244,28.93265629,-99999.0,'11111222,11111222,99999999' 
TABS,ioos:station:wmo:42048:1,2016-05-06T15:30:00Z,27.9396,-96.8429,2.0,27.87779968,27.33192273,-99999.0,'11111222,11111222,99999999' 
TABS,ioos:station:wmo:42048:1,2016-05-06T16:00:00Z,27.9396,-96.8429,2.0,27.35383471,27.61805569,-99999.0,'11111222,11111222,99999999' 
TABS,ioos:station:wmo:42048:1,2016-05-06T16:30:00Z,27.9396,-96.8429,2.0,27.49795109,26.0983716,-99999.0,'11111222,11111222,99999999' 
TABS,ioos:station:wmo:42048:1,2016-05-06T17:00:00Z,27.9396,-96.8429,2.0,26.85777048,26.27414128,-99999.0,'11111222,11111222,99999999' 
TABS,ioos:station:wmo:42048:1,2016-05-06T17:30:00Z,27.9396,-96.8429,2.0,26.57574537,24.29711506,-99999.0,'11111222,11111222,99999999' 
TABS,ioos:station:wmo:42048:1,2016-05-06T18:00:00Z,27.9396,-96.8429,2.0,33.32588526,24.42671693,-99999.0,'11111222,11111222,99999999' 
TABS,ioos:station:wmo:42048:1,2016-05-06T18:30:00Z,27.9396,-96.8429,2.0,23.70175767,24.52898693,-99999.0,'11111222,11111222,99999999' 
TABS,ioos:station:wmo:42048:1,2016-05-06T19:00:00Z,27.9396,-96.8429,2.0,27.65641319,25.83126981,-99999.0,'11111222,11111222,99999999' 
TABS,ioos:station:wmo:42048:1,2016-05-06T19:30:00Z,27.9396,-96.8429,2.0,25.47038117,25.04406117,-99999.0,'11111222,11111222,99999999' 
TABS,ioos:station:wmo:42048:1,2016-05-06T20:00:00Z,27.9396,-96.8429,2.0,20.09697139,24.97036043,-99999.0,'11111222,11111222,99999999' 
TABS,ioos:station:wmo:42048:1,2016-05-06T20:30:00Z,27.9396,-96.8429,2.0,15.76156524,23.52449149,-99999.0,'11111222,11111222,99999999' 
TABS,ioos:station:wmo:42048:1,2016-05-06T21:00:00Z,27.9396,-96.8429,2.0,10.20369571,24.2738975,-99999.0,'11111222,11111222,99999999' 
TABS,ioos:station:wmo:42048:1,2016-05-06T21:30:00Z,27.9396,-96.8429,2.0,11.51706095,23.89102342,-99999.0,'11111222,11111222,99999999' 
TABS,ioos:station:wmo:42048:1,2016-05-06T22:00:00Z,27.9396,-96.8429,2.0,9.91983614,27.80568647,-99999.0,'11111222,11111222,99999999' 
TABS,ioos:station:wmo:42048:1,2016-05-06T22:30:00Z,27.9396,-96.8429,2.0,11.32604965,28.20934597,-99999.0,'11111222,11111222,99999999' 
TABS,ioos:station:wmo:42048:1,2016-05-06T23:00:00Z,27.9396,-96.8429,2.0,4.421190881,29.57800703,-99999.0,'11111222,11111222,99999999' 
TABS,ioos:station:wmo:42048:1,2016-05-06T23:30:00Z,27.9396,-96.8429,2.0,11.01629524,29.82965638,-99999.0,'11111222,11111222,99999999' 
TABS,ioos:station:wmo:42048:1,2016-05-07T00:00:00Z,27.9396,-96.8429,2.0,10.9466936,31.2282004,-99999.0,'11111222,11111222,99999999' 
TABS,ioos:station:wmo:42048:1,2016-05-07T00:30:00Z,27.9396,-96.8429,2.0,4.212729155,32.80863453,-99999.0,'11111222,11111222,99999999' 
TABS,ioos:station:wmo:42048:1,2016-05-07T01:00:00Z,27.9396,-96.8429,2.0,0.448602009,34.50105651,-99999.0,'11111222,11111222,99999999' 
TABS,ioos:station:wmo:42048:1,2016-05-07T01:30:00Z,27.9396,-96.8429,2.0,6.895503749,34.65062193,-99999.0,'11111222,11111222,99999999' 
TABS,ioos:station:wmo:42048:1,2016-05-07T02:00:00Z,27.9396,-96.8429,2.0,7.839455459,33.43243934,-99999.0,'11111222,11111222,99999999' 
TABS,ioos:station:wmo:42048:1,2016-05-07T02:30:00Z,27.9396,-96.8429,2.0,8.951026852,35.54283331,-99999.0,'11111222,11111222,99999999' 
TABS,ioos:station:wmo:42048:1,2016-05-07T03:00:00Z,27.9396,-96.8429,2.0,12.86702888,33.27554207,-99999.0,'11111222,11111222,99999999' 
TABS,ioos:station:wmo:42048:1,2016-05-07T03:30:00Z,27.9396,-96.8429,2.0,15.27530594,32.64322441,-99999.0,'11111222,11111222,99999999' 
TABS,ioos:station:wmo:42048:1,2016-05-07T04:00:00Z,27.9396,-96.8429,2.0,11.19547671,32.34549891,-99999.0,'11111222,11111222,99999999' 
TABS,ioos:station:wmo:42048:1,2016-05-07T04:30:00Z,27.9396,-96.8429,2.0,15.18063312,32.30733663,-99999.0,'11111222,11111222,99999999' 
TABS,ioos:station:wmo:42048:1,2016-05-07T05:00:00Z,27.9396,-96.8429,2.0,18.27453152,32.72021546,-99999.0,'11111222,11111222,99999999' 
TABS,ioos:station:wmo:42048:1,2016-05-07T05:30:00Z,27.9396,-96.8429,2.0,20.23910707,32.14467296,-99999.0,'11111222,11111222,99999999' 
TABS,ioos:station:wmo:42048:1,2016-05-07T06:00:00Z,27.9396,-96.8429,2.0,21.74535889,30.28506728,-99999.0,'11111222,11111222,99999999' 
TABS,ioos:station:wmo:42048:1,2016-05-07T06:30:00Z,27.9396,-96.8429,2.0,27.43242043,32.79792981,-99999.0,'11111222,11111222,99999999' 
TABS,ioos:station:wmo:42048:1,2016-05-07T07:00:00Z,27.9396,-96.8429,2.0,27.18203824,35.30955961,-99999.0,'11111222,11111222,99999999' 
TABS,ioos:station:wmo:42048:1,2016-05-07T07:30:00Z,27.9396,-96.8429,2.0,30.36063084,35.67196799,-99999.0,'11111222,11111222,99999999' 
TABS,ioos:station:wmo:42048:1,2016-05-07T08:00:00Z,27.9396,-96.8429,2.0,33.64962156,35.24565931,-99999.0,'11111222,11111222,99999999' 
TABS,ioos:station:wmo:42048:1,2016-05-07T08:30:00Z,27.9396,-96.8429,2.0,37.27075255,35.17286028,-99999.0,'11111222,11111222,99999999' 
TABS,ioos:station:wmo:42048:1,2016-05-07T09:00:00Z,27.9396,-96.8429,2.0,37.7104408,38.45213648,-99999.0,'11111222,11111222,99999999' 
TABS,ioos:station:wmo:42048:1,2016-05-07T09:30:00Z,27.9396,-96.8429,2.0,36.6478826,34.56225976,-99999.0,'11111222,11111222,99999999' 
TABS,ioos:station:wmo:42048:1,2016-05-07T10:00:00Z,27.9396,-96.8429,2.0,42.63037279,36.42593719,-99999.0,'11111222,11111222,99999999' 
TABS,ioos:station:wmo:42048:1,2016-05-07T10:30:00Z,27.9396,-96.8429,2.0,43.29831146,36.19154597,-99999.0,'11111222,11111222,99999999' 
TABS,ioos:station:wmo:42048:1,2016-05-07T11:00:00Z,27.9396,-96.8429,2.0,46.91755236,37.40568005,-99999.0,'11111222,11111222,99999999' 
TABS,ioos:station:wmo:42048:1,2016-05-07T11:30:00Z,27.9396,-96.8429,2.0,51.15815284,36.84782354,-99999.0,'11111222,11111222,99999999' 
TABS,ioos:station:wmo:42048:1,2016-05-07T12:00:00Z,27.9396,-96.8429,2.0,48.66176586,36.42672233,-99999.0,'11111222,11111222,99999999' 
TABS,ioos:station:wmo:42048:1,2016-05-07T12:30:00Z,27.9396,-96.8429,2.0,58.41103366,32.53007378,-99999.0,'11111222,11111222,99999999' 
TABS,ioos:station:wmo:42048:1,2016-05-07T13:00:00Z,27.9396,-96.8429,2.0,55.60962253,31.99195055,-99999.0,'11111222,11111222,99999999' 
TABS,ioos:station:wmo:42048:1,2016-05-07T13:30:00Z,27.9396,-96.8429,2.0,59.04538978,32.48697739,-99999.0,'11111222,11111222,99999999' 
TABS,ioos:station:wmo:42048:1,2016-05-07T14:00:00Z,27.9396,-96.8429,2.0,56.96309924,31.14566583,-99999.0,'11111222,11111222,99999999' 
TABS,ioos:station:wmo:42048:1,2016-05-07T14:30:00Z,27.9396,-96.8429,2.0,59.58481536,28.30542351,-99999.0,'11111222,11111222,99999999' 
TABS,ioos:station:wmo:42048:1,2016-05-07T15:00:00Z,27.9396,-96.8429,2.0,63.74212639,28.36716588,-99999.0,'11111222,11111222,99999999' 
TABS,ioos:station:wmo:42048:1,2016-05-07T15:30:00Z,27.9396,-96.8429,2.0,64.00379555,28.38157325,-99999.0,'11111222,11111222,99999999' 
TABS,ioos:station:wmo:42048:1,2016-05-07T16:00:00Z,27.9396,-96.8429,2.0,60.14448148,29.52900439,-99999.0,'11111222,11111222,99999999' 
TABS,ioos:station:wmo:42048:1,2016-05-07T16:30:00Z,27.9396,-96.8429,2.0,61.73703893,27.7707418,-99999.0,'11111222,11111222,99999999' 
TABS,ioos:station:wmo:42048:1,2016-05-07T17:00:00Z,27.9396,-96.8429,2.0,60.14140444,26.23215775,-99999.0,'11111222,11111222,99999999' 
TABS,ioos:station:wmo:42048:1,2016-05-07T17:30:00Z,27.9396,-96.8429,2.0,55.66498374,23.65114162,-99999.0,'11111222,11111222,99999999' 
TABS,ioos:station:wmo:42048:1,2016-05-07T18:00:00Z,27.9396,-96.8429,2.0,56.96475075,23.05761913,-99999.0,'11111222,11111222,99999999' 
TABS,ioos:station:wmo:42048:1,2016-05-07T18:30:00Z,27.9396,-96.8429,2.0,51.17478587,26.49342749,-99999.0,'11111222,11111222,99999999' 
TABS,ioos:station:wmo:42048:1,2016-05-07T19:00:00Z,27.9396,-96.8429,2.0,44.82299406,27.45001639,-99999.0,'11111222,11111222,99999999' 
TABS,ioos:station:wmo:42048:1,2016-05-07T19:30:00Z,27.9396,-96.8429,2.0,42.7145741,25.5327241,-99999.0,'11111222,11111222,99999999' 
TABS,ioos:station:wmo:42048:1,2016-05-07T20:00:00Z,27.9396,-96.8429,2.0,32.95326647,29.54300256,-99999.0,'11111222,11111222,99999999' 
TABS,ioos:station:wmo:42048:1,2016-05-07T20:30:00Z,27.9396,-96.8429,2.0,39.01495204,30.24519135,-99999.0,'11111222,11111222,99999999' 
TABS,ioos:station:wmo:42048:1,2016-05-07T21:00:00Z,27.9396,-96.8429,2.0,39.59963203,31.32954676,-99999.0,'11111222,11111222,99999999' 
TABS,ioos:station:wmo:42048:1,2016-05-07T21:30:00Z,27.9396,-96.8429,2.0,37.64168187,32.07690914,-99999.0,'11111222,11111222,99999999' 
TABS,ioos:station:wmo:42048:1,2016-05-07T22:00:00Z,27.9396,-96.8429,2.0,38.94537114,32.91559053,-99999.0,'11111222,11111222,99999999' 
TABS,ioos:station:wmo:42048:1,2016-05-07T22:30:00Z,27.9396,-96.8429,2.0,38.90772386,36.11083494,-99999.0,'11111222,11111222,99999999' 
TABS,ioos:station:wmo:42048:1,2016-05-07T23:00:00Z,27.9396,-96.8429,2.0,37.09078244,35.81626586,-99999.0,'11111222,11111222,99999999' 
TABS,ioos:station:wmo:42048:1,2016-05-07T23:30:00Z,27.9396,-96.8429,2.0,37.91501172,36.51807361,-99999.0,'11111222,11111222,99999999' 
TABS,ioos:station:wmo:42048:1,2016-05-08T00:00:00Z,27.9396,-96.8429,2.0,36.56886489,38.05052562,-99999.0,'11111222,11111222,99999999' 
TABS,ioos:station:wmo:42048:1,2016-05-08T00:30:00Z,27.9396,-96.8429,2.0,36.8216217,44.98401605,-99999.0,'11111222,11111222,99999999' 
TABS,ioos:station:wmo:42048:1,2016-05-08T01:00:00Z,27.9396,-96.8429,2.0,36.52738709,42.80876546,-99999.0,'11111222,11111222,99999999' 
TABS,ioos:station:wmo:42048:1,2016-05-08T01:30:00Z,27.9396,-96.8429,2.0,39.72095468,42.42250582,-99999.0,'11111222,11111222,99999999' 
TABS,ioos:station:wmo:42048:1,2016-05-08T02:00:00Z,27.9396,-96.8429,2.0,37.60742086,46.93188681,-99999.0,'11111222,11111222,99999999' 
TABS,ioos:station:wmo:42048:1,2016-05-08T02:30:00Z,27.9396,-96.8429,2.0,38.44298396,48.67034004,-99999.0,'11111222,11111222,99999999' 
TABS,ioos:station:wmo:42048:1,2016-05-08T03:00:00Z,27.9396,-96.8429,2.0,39.11961956,47.69075487,-99999.0,'11111222,11111222,99999999' 
TABS,ioos:station:wmo:42048:1,2016-05-08T03:30:00Z,27.9396,-96.8429,2.0,38.34365214,49.22828151,-99999.0,'11111222,11111222,99999999' 
TABS,ioos:station:wmo:42048:1,2016-05-08T04:00:00Z,27.9396,-96.8429,2.0,38.69542417,50.41758523,-99999.0,'11111222,11111222,99999999' 
TABS,ioos:station:wmo:42048:1,2016-05-08T04:30:00Z,27.9396,-96.8429,2.0,37.35318133,51.70383835,-99999.0,'11111222,11111222,99999999' 
TABS,ioos:station:wmo:42048:1,2016-05-08T05:00:00Z,27.9396,-96.8429,2.0,40.64270219,52.6761521,-99999.0,'11111222,11111222,99999999' 
TABS,ioos:station:wmo:42048:1,2016-05-08T05:30:00Z,27.9396,-96.8429,2.0,43.13539905,50.4151267,-99999.0,'11111222,11111222,99999999' 
TABS,ioos:station:wmo:42048:1,2016-05-08T06:00:00Z,27.9396,-96.8429,2.0,40.37022522,54.83829684,-99999.0,'11111222,11111222,99999999' 
TABS,ioos:station:wmo:42048:1,2016-05-08T06:30:00Z,27.9396,-96.8429,2.0,43.53513926,54.21038277,-99999.0,'11111222,11111222,99999999' 
TABS,ioos:station:wmo:42048:1,2016-05-08T07:00:00Z,27.9396,-96.8429,2.0,43.10035015,54.60451447,-99999.0,'11111222,11111222,99999999' 
TABS,ioos:station:wmo:42048:1,2016-05-08T07:30:00Z,27.9396,-96.8429,2.0,46.85902721,50.78992518,-99999.0,'11111222,11111222,99999999' 
TABS,ioos:station:wmo:42048:1,2016-05-08T08:00:00Z,27.9396,-96.8429,2.0,44.32677398,54.15397677,-99999.0,'11111222,11111222,99999999' 
TABS,ioos:station:wmo:42048:1,2016-05-08T08:30:00Z,27.9396,-96.8429,2.0,45.53109001,54.17377687,-99999.0,'11111222,11111222,99999999' 
TABS,ioos:station:wmo:42048:1,2016-05-08T09:00:00Z,27.9396,-96.8429,2.0,46.39485408,56.93896557,-99999.0,'11111222,11111222,99999999' 
TABS,ioos:station:wmo:42048:1,2016-05-08T09:30:00Z,27.9396,-96.8429,2.0,44.5725828,61.59778649,-99999.0,'11111222,11111222,99999999' 
TABS,ioos:station:wmo:42048:1,2016-05-08T10:00:00Z,27.9396,-96.8429,2.0,47.72458959,63.52049197,-99999.0,'11111222,11111222,99999999' 
TABS,ioos:station:wmo:42048:1,2016-05-08T10:30:00Z,27.9396,-96.8429,2.0,47.34335937,59.66606489,-99999.0,'11111222,11111222,99999999' 
TABS,ioos:station:wmo:42048:1,2016-05-08T11:00:00Z,27.9396,-96.8429,2.0,48.07755343,61.90454911,-99999.0,'11111222,11111222,99999999' 
TABS,ioos:station:wmo:42048:1,2016-05-08T11:30:00Z,27.9396,-96.8429,2.0,46.72361406,64.41828622,-99999.0,'11111222,11111222,99999999' 
TABS,ioos:station:wmo:42048:1,2016-05-08T12:00:00Z,27.9396,-96.8429,2.0,51.18981587,61.25312237,-99999.0,'11111222,11111222,99999999' 
TABS,ioos:station:wmo:42048:1,2016-05-08T12:30:00Z,27.9396,-96.8429,2.0,53.02975132,59.32809115,-99999.0,'11111222,11111222,99999999' 
TABS,ioos:station:wmo:42048:1,2016-05-08T13:00:00Z,27.9396,-96.8429,2.0,48.09469928,60.38304812,-99999.0,'11111222,11111222,99999999' 
TABS,ioos:station:wmo:42048:1,2016-05-08T13:30:00Z,27.9396,-96.8429,2.0,51.22353112,61.31394621,-99999.0,'11111222,11111222,99999999' 
TABS,ioos:station:wmo:42048:1,2016-05-08T14:00:00Z,27.9396,-96.8429,2.0,52.70245125,61.88572453,-99999.0,'11111222,11111222,99999999' 
TABS,ioos:station:wmo:42048:1,2016-05-08T14:30:00Z,27.9396,-96.8429,2.0,46.97701616,56.36874755,-99999.0,'11111222,11111222,99999999' 